Simultaneous Nadir Overpasses (SNOs) Predictions

Prediction of SNOs between GOES-17 and TERRA Satellite Orbit:

Table of predicted SNOs for the next 14.0 days since TLE Epoch: 5/2/2020
Index Date Time (GOES-17) GOES-17 Lat,Lon TERRA Lat,Lon Distance(km) Time Diff (sec)
1 05/02/2020 19:33:50 0.03,-137.20 -0.30,-135.62 179.85 80
2 05/03/2020 07:55:14 -0.03,-137.19 -0.82,-140.80 411.25 80
3 05/05/2020 07:43:04 -0.03,-137.18 -0.18,-137.85 76.55 80
4 05/07/2020 07:28:15 -0.03,-137.17 0.45,-134.91 257.06 80
5 05/07/2020 19:49:31 0.03,-137.17 0.66,-140.06 329.74 80
6 05/09/2020 19:40:03 0.02,-137.14 0.04,-137.12 3.43 80
7 05/11/2020 19:27:57 0.01,-137.12 -0.64,-134.19 333.21 80
8 05/12/2020 07:49:22 -0.01,-137.10 -0.50,-139.38 258.99 80
9 05/14/2020 07:34:36 -0.00,-137.07 0.10,-136.44 70.97 80




NCC Satellite Simultaneous Nadir Overpasses (SNOs) Prediction Service
